Terminal Aerodrome Forecast
Issued by NWS Tampa Bay Area, FL

Home | Current Version | Previous Version | Text Only | Print | Product List | Glossary On
Versions: 1 2 3 4 5 6 7 8 9 10 11 12 13 14 15 16 17 18 19 20
654
FTUS42 KTBW 252045 AAA
TAFFMY
TAF AMD
KFMY 252045Z 2521/2618 14008KT 6SM -RA BKN030 OVC080
      TEMPO 2521/2523 3SM RA BKN025
     FM260200 11008KT P6SM SCT025 BKN040 OVC080
     FM260900 10007KT P6SM VCSH SCT015 BKN025 OVC040
     FM261400 12012G18KT 5SM -RA VCTS FEW005 SCT015CB OVC025=

USA.gov is the U.S. government's official web portal to all federal, state and local government web resources and services.